Location: Home
(42.5358°N, 72.7383°W)
Time: 05:20:49
(UTC-05:00)

A-11 Canister half - Pass Details

Date: 29 November 2021
Orbit: 1524 x 1684 km, 47.3° (Epoch: 17 January)

Event Time Altitude Azimuth Distance (km) Brightness Sun altitude
Exits shadow 04:00:34 66° 278° (W) 1,791 8.9 -32.3°
Maximum altitude 04:02:13 79° 342° (NNW) 1,689 9.0 -32.0°
Drops below altitude 10° 04:12:10 10° 69° (ENE) 3,855 11.9 -30.2°
Sets 04:15:16 0° 71° (ENE) 4,821 12.6 -29.6°
